This demonstration page uses our WeatherBlox Daily Observations layout. Learn more.

Left ArrowRight Arrow

Hourly Observations for May 4, 2022

Temp ( °F °C ) Dew Point ( °F °C ) Humidity (%) Winds ( mph kmh ) Pressure ( in mb ) Visibility ( mi km ) Precip ( " mm )
12:52 am 00:52 Cloudy 51 10.6 44 6.7 77 77 NE 10 17 30.06 1018 10 16 0.00 0.00
1:52 am 01:52 Cloudy 50 10 45 7.2 83 83 ENE 7 11 30.06 1018 10 16 0.00 0.00
2:35 am 02:35 Cloudy 50 10 45 7.2 83 83 E 10 17 30.08 1019 10 16 0.00 0.00
2:52 am 02:52 Cloudy 50 10 44 6.7 80 80 ENE 8 13 30.06 1018 10 16 0.00 0.00
3:52 am 03:52 Cloudy 49 9.4 44 6.7 83 83 NE 12 19 30.05 1018 10 16 0.00 0.00
4:52 am 04:52 Cloudy 49 9.4 45 7.2 86 86 E 9 15 30.07 1018 10 16 0.00 0.00
5:52 am 05:52 Cloudy 49 9.4 45 7.2 86 86 E 8 13 30.07 1018 10 16 0.00 0.00
6:52 am 06:52 Cloudy 49 9.4 45 7.2 86 86 E 9 15 30.09 1019 10 16 0.00 0.00
7:52 am 07:52 Cloudy 49 9.4 45 7.2 86 86 ESE 12 19 30.09 1019 10 16 0.00 0.00
8:52 am 08:52 Cloudy 51 10.6 46 7.8 83 83 E 13 20 30.07 1018 10 16 0.00 0.00
9:44 am 09:44 Cloudy 52 11.1 46 7.8 80 80 ESE 8 13 30.10 1019 10 16 0.00 0.00
9:52 am 09:52 Cloudy 52 11.1 46 7.8 80 80 ESE 9 15 30.08 1019 10 16 0.00 0.00
10:52 am 10:52 Cloudy with Light Rain 52 11.1 47 8.3 83 83 ESE 10 17 30.07 1018 10 16 0.00 0.00
11:52 am 11:52 Cloudy 51 10.6 48 8.9 89 89 SE 9 15 30.08 1019 10 16 0.04 1.02
12:05 pm 12:05 Cloudy with Light Rain 51 10.6 48 8.9 89 89 SSE 8 13 30.10 1019 10 16 0.00 0.00
12:15 pm 12:15 Cloudy with Nearby Thunderstorms 51 10.6 48 8.9 89 89 W 14 22 30.11 1020 8 13 0.01 0.25
12:28 pm 12:28 Cloudy with Thunderstorms 51 10.6 48 8.9 89 89 SSW 12 19 30.12 1020 10 16 0.02 0.51
12:35 pm 12:35 Cloudy with Strong Thunderstorms 50 10 49 9.4 96 96 SSW 10 17 30.13 1020 2 3 0.02 0.51
12:47 pm 12:47 Cloudy with Thunderstorms 50 10 48 9 94 94 S 9 15 30.14 1021 3 5 0.29 7.37
12:52 pm 12:52 Cloudy with Thunderstorms 50 10 49 9.4 96 96 S 9 15 30.12 1020 5 8 0.31 7.87
1:00 pm 13:00 Cloudy with Thunderstorms 50 10 49 9.4 96 96 S 9 15 30.13 1020 4 6 0.03 0.76
1:17 pm 13:17 Cloudy with Nearby Thunderstorms 50 10 49 9.4 96 96 SSE 9 15 30.12 1020 4 6 0.08 2.03
1:45 pm 13:45 Cloudy with Rain 50 10 49 9.4 96 96 SSE 16 26 30.09 1019 5 8 0.19 4.83
1:52 pm 13:52 Cloudy with Nearby Thunderstorms 50 10 49 9.4 96 96 SE 16 26 30.07 1018 4 6 0.21 5.33
2:11 pm 14:11 Cloudy with Rain 50 10 49 9.4 96 96 SE 15 24 30.05 1018 5 8 0.05 1.27
2:45 pm 14:45 Cloudy with Nearby Thunderstorms 51 10.6 49 9.4 92 92 SE 20 31 30.00 1016 7 11 0.12 3.05
2:52 pm 14:52 Cloudy with Nearby Thunderstorms 51 10.6 50 10 96 96 SE 18 30 30.00 1016 9 14 0.14 3.56
3:00 pm 15:00 Cloudy with Light Rain 51 10.6 50 10 96 96 SE 15 24 30.01 1016 10 16 0.00 0.00
3:17 pm 15:17 Cloudy with Rain 52 11.1 51 10.6 97 97 NW 9 15 30.08 1018 6 10 0.03 0.76
3:25 pm 15:25 Cloudy with Light Rain 52 11.1 51 10.6 97 97 NW 8 13 30.08 1018 10 16 0.03 0.76
3:52 pm 15:52 Cloudy with Rain 52 11.1 51 10.6 97 97 N 7 11 30.07 1018 5 8 0.11 2.79
4:33 pm 16:33 Cloudy with Light Rain 52 11.1 52 11.1 100 100 ENE 5 7 30.07 1018 10 16 0.11 2.79
4:48 pm 16:48 Cloudy with Light Rain 52 11 52 11 100 100 ESE 5 7 30.07 1018 10 16 0.12 3.05
4:52 pm 16:52 Cloudy with Light Rain 52 11.1 52 11.1 100 100 ESE 3 6 30.07 1018 10 16 0.12 3.05
5:31 pm 17:31 Cloudy with Light Rain 53 11.7 52 11.1 96 96 SE 10 17 30.04 1017 9 14 0.02 0.51
5:52 pm 17:52 Cloudy 53 11.7 52 11.1 96 96 SE 13 20 30.03 1017 10 16 0.03 0.76
6:52 pm 18:52 Cloudy 53 11.7 51 10.6 93 93 ESE 10 17 30.03 1017 10 16 0.00 0.00
7:52 pm 19:52 Cloudy 53 11.7 51 10.6 93 93 SE 9 15 30.02 1017 10 16 0.00 0.00
8:21 pm 20:21 Cloudy 53 11.7 52 11.1 96 96 ESE 10 17 30.01 1016 10 16 0.00 0.00
8:52 pm 20:52 Mostly Cloudy 53 11.7 52 11.1 96 96 ESE 12 19 29.99 1016 10 16 0.00 0.00
9:03 pm 21:03 Mostly Cloudy 53 11.7 52 11.1 96 96 ESE 14 22 29.98 1015 10 16 0.00 0.00
9:52 pm 21:52 Mostly Cloudy with Light Rain 54 12.2 52 11.1 93 93 SE 12 19 29.98 1015 10 16 0.00 0.00
10:11 pm 22:11 Cloudy with Light Rain 54 12.2 53 11.7 97 97 E 9 15 29.97 1015 10 16 0.00 0.00
10:40 pm 22:40 Cloudy with Nearby Thunderstorms 54 12.2 53 11.7 97 97 ESE 14 22 29.97 1015 10 16 0.01 0.25
10:52 pm 22:52 Cloudy with Thunderstorms 55 12.8 53 11.7 93 93 ESE 13 20 29.97 1015 10 16 0.01 0.25
11:44 pm 23:44 Cloudy with Nearby Thunderstorms 54 12.2 54 12.2 100 100 N 5 7 29.96 1015 4 6 0.23 5.84
11:52 pm 23:52 Cloudy with Strong Thunderstorms 54 12.2 53 11.7 97 97 E 3 6 29.98 1015 3 4 0.33 8.38

Powered by AerisWeather